Starlink 33866

operational
NORAD ID: 63653 Int'l Des: 2025-083 Owner: SPXS Country: US Constellation: starlink
LEOCIRCULAR

About Starlink 33866

Description loading...

Live Position

Loading 3D Globe...

Upcoming Passes

Altitude History

Altitude vs Time

uPlot chart will show altitude changes over time

Two-Line Element Set

1 63653U 25083V 25304.48099272 .00052379 00000-0 18972-2 0 9991
2 63653 43.0027 15.1198 0001114 249.3542 110.7190 15.27618938 30330
Epoch: Oct 31, 2025 • Age: 32 hours

Current Status

Altitude 486.1 km
Velocity 7.63 km/s
Sub-Earth Point 41.68°N, 109.14°E
Launch Date Apr 25, 2025
Age 0.5 years
Type internet

Technical Details

Classification Payload
Mass 575.00 kg
Dry Mass 530.00 kg
Total Mass 575.00 kg
Length 0.30 m
Diameter 4.10 m
Span 29.00 m
Shape Box + pan
Manufacturer SPXS
Bus Type Starlink V2MO
Phase Status In Orbit
Owner/State SPXS/US

Large Constellations

Loading constellations...